Date,TemperatureHighF,TemperatureAvgF,TemperatureLowF,DewpointHighF,DewpointAvgF,DewpointLowF,HumidityHigh,HumidityAvg,HumidityLow,PressureMaxIn,PressureMinIn,WindSpeedMaxMPH,WindSpeedAvgMPH,GustSpeedMaxMPH,PrecipitationSumIn
2013-2-1,67.4,48.6,31.3,34.4,29.6,25.2,80,52,26,30.16,30.06,4,0,8,0.00
2013-2-2,65.2,53.0,39.9,43.4,32.7,28.3,68,49,26,30.20,30.09,5,0,8,0.00
2013-2-3,68.7,55.8,43.5,45.6,37.0,24.2,85,54,21,30.12,29.94,8,1,13,0.00
2013-2-4,70.0,51.5,34.4,32.4,26.5,22.4,69,41,19,30.05,29.91,4,0,10,0.00
2013-2-5,66.6,43.0,34.3,42.9,27.0,23.6,85,55,25,29.96,29.89,11,1,22,0.00
2013-2-6,66.3,50.2,37.7,42.0,32.5,21.2,84,56,21,29.99,29.88,11,4,20,0.00
2013-2-7,43.4,34.9,30.0,30.7,21.5,17.4,62,58,54,30.00,29.82,7,1,14,0.00
2013-2-8,48.6,40.6,36.3,31.4,28.3,24.9,73,62,44,29.81,29.73,14,8,23,0.00
2013-2-9,49.0,40.1,33.7,28.1,24.6,20.4,68,55,32,29.93,29.76,14,6,29,0.00
2013-2-10,50.7,36.8,32.0,27.3,21.0,18.4,60,53,29,29.95,29.90,5,1,7,0.00
2013-2-11,50.1,36.1,25.5,26.8,15.7,0.2,78,48,17,30.12,29.94,9,1,11,0.00
2013-2-12,52.2,34.4,23.2,14.8,7.5,0.8,46,33,18,30.24,30.11,2,0,6,0.00
2013-2-13,59.2,37.7,0.0,28.2,17.7,9.5,58,43,21,30.20,30.07,5,0,9,0.00
2013-2-14,68.2,48.5,28.8,24.9,20.7,17.0,63,37,17,30.17,30.04,12,2,19,0.00
2013-2-15,69.5,55.0,35.0,23.5,19.5,13.1,55,28,14,30.23,30.14,10,4,25,0.00
2013-2-16,68.3,50.0,31.9,20.2,14.8,10.8,43,27,13,30.20,29.97,8,1,13,0.00
2013-2-17,68.8,50.8,28.7,33.0,21.7,11.5,57,35,17,29.90,29.79,17,4,23,0.00
2013-2-18,65.7,48.7,29.9,36.5,28.1,21.7,77,49,24,29.94,29.79,19,4,23,0.00
2013-2-19,49.9,42.7,35.8,38.3,33.7,27.5,88,71,53,29.81,29.55,22,9,31,0.04
2013-2-20,47.6,40.4,33.0,28.1,23.4,17.6,81,52,33,29.86,29.54,25,11,33,0.00
2013-2-21,54.0,42.6,30.3,29.2,23.9,16.9,75,50,24,29.99,29.82,10,4,19,0.00
2013-2-22,59.4,39.1,26.6,27.2,23.6,20.6,81,58,22,30.10,30.00,3,1,13,0.00
2013-2-23,60.8,48.2,34.8,32.3,28.4,23.1,65,48,28,30.03,29.81,19,5,33,0.00
2013-2-24,56.4,45.1,33.4,26.3,4.7,-1.3,50,20,10,30.12,29.99,18,6,27,0.00
2013-2-25,65.7,46.2,23.9,19.6,8.8,-3.0,35,23,13,30.15,29.93,13,3,24,0.00
2013-2-26,62.5,51.7,39.9,25.3,15.4,2.3,53,26,13,30.10,29.94,13,4,22,0.00
2013-2-27,61.3,47.2,28.9,12.4,7.6,1.9,39,21,12,30.24,30.09,6,2,15,0.00
2013-2-28,67.5,48.0,28.1,14.3,9.9,2.6,44,24,10,30.31,30.21,6,1,11,0.00